| time (UTC) | temp F | wind direction | speed MPH | gust MPH | rain 1hr in | rain 24hr in | rain mn in | humidity % | barometer mb |
| 20260904064320 | 57 | 155 | 0.0 | 3.0 | 0.00 | 0.07 | 0.07 | 82 | 1005.7 |
| 20260904063319 | 57 | 119 | 0.0 | 4.0 | 0.00 | 0.07 | 0.07 | 85 | 1005.7 |
| 20260904062338 | 56 | 121 | 0.0 | 3.0 | 0.00 | 0.07 | 0.07 | 88 | 1005.7 |
| 20260904061321 | 56 | 109 | 0.0 | 0.0 | 0.00 | 0.07 | 0.07 | 93 | 1005.7 |
| 20260904060322 | 57 | 109 | 0.0 | 0.0 | 0.00 | 0.07 | 0.07 | 93 | 1005.7 |
| 20260904055322 | 57 | 109 | 0.0 | 0.0 | 0.00 | 0.07 | 0.07 | 93 | 1006.0 |
| 20260904054321 | 57 | 109 | 0.0 | 0.0 | 0.00 | 0.07 | 0.07 | 92 | 1005.8 |
| 20260904053316 | 57 | 109 | 0.0 | 0.0 | 0.00 | 0.07 | 0.07 | 92 | 1005.8 |
| 20260904052336 | 57 | 109 | 0.0 | 0.0 | 0.00 | 0.07 | 0.07 | 92 | 1006.1 |
| 20260904051351 | 57 | 109 | 0.0 | 0.0 | 0.00 | 0.07 | 0.07 | 92 | 1006.2 |
| 20260904050331 | 57 | 109 | 0.0 | 0.0 | 0.00 | 0.07 | 0.07 | 92 | 1006.2 |
| 20260904045328 | 57 | 109 | 0.0 | 1.0 | 0.00 | 0.07 | 0.07 | 92 | 1006.2 |
| 20260904044328 | 57 | 124 | 0.0 | 0.0 | 0.00 | 0.07 | 0.07 | 92 | 1006.3 |
| 20260904043329 | 57 | 124 | 0.0 | 0.0 | 0.00 | 0.07 | 0.07 | 92 | 1006.3 |
| 20260904042328 | 57 | 124 | 0.0 | 0.0 | 0.00 | 0.07 | 0.07 | 92 | 1006.4 |
| 20260904041348 | 57 | 123 | 0.0 | 0.0 | 0.00 | 0.07 | 0.07 | 92 | 1006.4 |
| 20260904040328 | 57 | 136 | 0.0 | 4.0 | 0.00 | 0.07 | 0.07 | 92 | 1006.4 |
| 20260904035327 | 57 | 98 | 0.0 | 0.0 | 0.00 | 0.07 | 0.07 | 92 | 1006.2 |
| 20260904034324 | 57 | 98 | 0.0 | 0.0 | 0.00 | 0.07 | 0.07 | 92 | 1006.1 |
| 20260904033324 | 57 | 98 | 0.0 | 0.0 | 0.00 | 0.07 | 0.07 | 92 | 1006.1 |
| 20260904032313 | 57 | 96 | 0.0 | 0.0 | 0.00 | 0.07 | 0.07 | 91 | 1006.0 |
| 20260904031311 | 58 | 97 | 0.0 | 0.0 | 0.00 | 0.07 | 0.07 | 90 | 1006.1 |
| 20260904030330 | 58 | 97 | 0.0 | 0.0 | 0.00 | 0.07 | 0.07 | 89 | 1006.1 |
| 20260904025329 | 59 | 97 | 0.0 | 0.0 | 0.00 | 0.14 | 0.07 | 89 | 1006.1 |
| 20260904024313 | 59 | 97 | 0.0 | 0.0 | 0.00 | 0.14 | 0.07 | 88 | 1006.1 |
| 20260904023313 | 59 | 97 | 0.0 | 0.0 | 0.00 | 0.14 | 0.07 | 87 | 1006.1 |
| 20260904022312 | 60 | 104 | 0.0 | 0.0 | 0.00 | 0.14 | 0.07 | 85 | 1006.2 |
| 20260904021332 | 60 | 115 | 0.0 | 0.0 | 0.00 | 0.14 | 0.07 | 81 | 1006.2 |
| 20260904020310 | 61 | 115 | 0.0 | 0.0 | 0.00 | 0.14 | 0.07 | 81 | 1006.2 |
| 20260904015330 | 61 | 115 | 0.0 | 1.0 | 0.00 | 0.19 | 0.07 | 80 | 1006.2 |
| 20260904014330 | 62 | 115 | 0.0 | 1.0 | 0.00 | 0.19 | 0.07 | 79 | 1006.2 |
| 20260904013311 | 62 | 105 | 0.0 | 2.0 | 0.00 | 0.19 | 0.07 | 77 | 1006.2 |
| 20260904012351 | 62 | 144 | 0.0 | 4.0 | 0.00 | 0.19 | 0.07 | 74 | 1006.1 |
| 20260904011311 | 62 | 117 | 0.0 | 0.0 | 0.00 | 0.19 | 0.07 | 72 | 1006.1 |
| 20260904010311 | 63 | 117 | 0.0 | 0.0 | 0.00 | 0.19 | 0.07 | 71 | 1006.1 |
| 20260904005352 | 63 | 117 | 0.0 | 6.0 | 0.00 | 0.19 | 0.07 | 72 | 1006.1 |
| 20260904004328 | 64 | 70 | 0.0 | 1.0 | 0.00 | 0.19 | 0.07 | 70 | 1006.2 |
| 20260904003328 | 64 | 15 | 0.0 | 0.0 | 0.00 | 0.19 | 0.07 | 65 | 1006.2 |
| 20260904002326 | 64 | 15 | 0.0 | 3.0 | 0.00 | 0.19 | 0.07 | 65 | 1006.2 |
| 20260904001326 | 64 | 271 | 0.0 | 3.0 | 0.00 | 0.19 | 0.07 | 64 | 1006.2 |
| 20260904000325 | 63 | 277 | 1.0 | 4.0 | 0.00 | 0.19 | 0.07 | 63 | 1006.2 |
| 20260903235323 | 63 | 273 | 0.0 | 4.0 | 0.00 | 0.19 | 0.07 | 64 | 1006.3 |
| 20260903234321 | 63 | 233 | 1.0 | 5.0 | 0.00 | 0.19 | 0.07 | 65 | 1006.4 |
| 20260903233321 | 62 | 180 | 0.0 | 7.0 | 0.00 | 0.19 | 0.07 | 67 | 1006.4 |
| 20260903232321 | 62 | 242 | 0.0 | 5.0 | 0.00 | 0.19 | 0.07 | 66 | 1006.6 |
| 20260903231324 | 62 | 220 | 1.0 | 12.0 | 0.00 | 0.19 | 0.07 | 67 | 1006.7 |
| 20260903230325 | 63 | 239 | 2.0 | 13.0 | 0.01 | 0.19 | 0.07 | 67 | 1006.7 |
| 20260903225345 | 63 | 290 | 1.0 | 13.0 | 0.01 | 0.19 | 0.07 | 70 | 1006.6 |
| 20260903224323 | 62 | 174 | 4.0 | 11.0 | 0.03 | 0.19 | 0.07 | 72 | 1006.7 |
| 20260903223323 | 62 | 248 | 2.0 | 7.0 | 0.04 | 0.19 | 0.07 | 76 | 1006.7 |
| 20260903222322 | 62 | 238 | 1.0 | 10.0 | 0.04 | 0.19 | 0.07 | 80 | 1006.7 |
| 20260903221322 | 61 | 202 | 0.0 | 2.0 | 0.04 | 0.19 | 0.07 | 83 | 1006.7 |
| 20260903220322 | 60 | 254 | 0.0 | 9.0 | 0.03 | 0.18 | 0.06 | 81 | 1006.7 |
| 20260903215321 | 62 | 219 | 1.0 | 11.0 | 0.03 | 0.19 | 0.06 | 79 | 1006.7 |
| 20260903214321 | 66 | 284 | 10.0 | 22.0 | 0.01 | 0.17 | 0.04 | 68 | 1006.1 |
| 20260903213321 | 68 | 187 | 0.0 | 1.0 | 0.00 | 0.16 | 0.03 | 52 | 1006.1 |
| 20260903212321 | 69 | 206 | 1.0 | 4.0 | 0.00 | 0.16 | 0.03 | 51 | 1006.1 |
| 20260903211340 | 69 | 163 | 2.0 | 6.0 | 0.00 | 0.16 | 0.03 | 49 | 1006.1 |
| 20260903210319 | 70 | 309 | 0.0 | 5.0 | 0.00 | 0.16 | 0.03 | 50 | 1006.1 |
| 20260903205338 | 69 | 150 | 3.0 | 11.0 | 0.00 | 0.16 | 0.03 | 50 | 1006.1 |
| 20260903204318 | 69 | 204 | 2.0 | 10.0 | 0.00 | 0.16 | 0.03 | 51 | 1006.2 |
| 20260903203338 | 69 | 243 | 1.0 | 5.0 | 0.00 | 0.16 | 0.03 | 54 | 1006.2 |
| 20260903202316 | 68 | 240 | 1.0 | 5.0 | 0.00 | 0.16 | 0.03 | 53 | 1006.7 |
| 20260903201315 | 68 | 245 | 2.0 | 9.0 | 0.00 | 0.16 | 0.03 | 56 | 1006.7 |
| 20260903200316 | 68 | 108 | 2.0 | 6.0 | 0.00 | 0.16 | 0.03 | 55 | 1006.7 |
| 20260903195315 | 68 | 221 | 2.0 | 8.0 | 0.00 | 0.16 | 0.03 | 58 | 1007.1 |
| 20260903194318 | 68 | 171 | 3.0 | 8.0 | 0.00 | 0.16 | 0.03 | 57 | 1007.3 |
| 20260903193339 | 67 | 257 | 2.0 | 7.0 | 0.00 | 0.16 | 0.03 | 59 | 1007.3 |
| 20260903192317 | 65 | 125 | 2.0 | 9.0 | 0.00 | 0.16 | 0.03 | 62 | 1007.5 |
| 20260903191317 | 65 | 204 | 0.0 | 7.0 | 0.00 | 0.16 | 0.03 | 67 | 1007.7 |
| 20260903190317 | 64 | 123 | 0.0 | 6.0 | 0.00 | 0.16 | 0.03 | 73 | 1007.7 |
| 20260903185317 | 62 | 130 | 0.0 | 3.0 | 0.00 | 0.23 | 0.03 | 76 | 1007.8 |
| 20260903184337 | 60 | 181 | 0.0 | 4.0 | 0.00 | 0.23 | 0.03 | 81 | 1007.8 |
| 20260903183317 | 60 | 117 | 0.0 | 0.0 | 0.00 | 0.23 | 0.03 | 85 | 1007.8 |
| 20260903182316 | 59 | 117 | 0.0 | 3.0 | 0.00 | 0.23 | 0.03 | 88 | 1007.8 |
| 20260903181337 | 59 | 117 | 0.0 | 3.0 | 0.00 | 0.23 | 0.03 | 90 | 1007.8 |
| 20260903180338 | 59 | 39 | 0.0 | 0.0 | 0.00 | 0.23 | 0.03 | 95 | 1007.8 |
| 20260903175316 | 58 | 39 | 0.0 | 3.0 | 0.00 | 0.31 | 0.03 | 96 | 1008.0 |
| 20260903174317 | 57 | 64 | 0.0 | 1.0 | 0.00 | 0.31 | 0.03 | 97 | 1007.9 |
| 20260903173317 | 57 | 64 | 0.0 | 0.0 | 0.00 | 0.31 | 0.03 | 97 | 1007.9 |
| 20260903172317 | 56 | 64 | 0.0 | 0.0 | 0.00 | 0.31 | 0.03 | 98 | 1008.0 |
| 20260903171315 | 56 | 64 | 0.0 | 0.0 | 0.00 | 0.31 | 0.03 | 99 | 1008.2 |
| 20260903170317 | 55 | 64 | 0.0 | 0.0 | 0.00 | 0.31 | 0.03 | 99 | 1008.2 |
| 20260903165338 | 55 | 64 | 0.0 | 0.0 | 0.00 | 0.41 | 0.03 | 99 | 1008.2 |
| 20260903164319 | 55 | 64 | 0.0 | 0.0 | 0.00 | 0.41 | 0.03 | 99 | 1008.3 |
| 20260903163320 | 55 | 64 | 0.0 | 0.0 | 0.00 | 0.41 | 0.03 | 99 | 1008.3 |
| 20260903162319 | 54 | 64 | 0.0 | 0.0 | 0.00 | 0.41 | 0.03 | 99 | 1008.3 |
| 20260903161319 | 54 | 64 | 0.0 | 0.0 | 0.00 | 0.41 | 0.03 | 99 | 1008.3 |
| 20260903160316 | 54 | 64 | 0.0 | 0.0 | 0.00 | 0.41 | 0.03 | 99 | 1008.3 |
| 20260903155316 | 54 | 64 | 0.0 | 0.0 | 0.00 | 0.47 | 0.03 | 99 | 1008.3 |
| 20260903154317 | 54 | 64 | 0.0 | 0.0 | 0.00 | 0.47 | 0.03 | 99 | 1008.3 |
| 20260903153338 | 54 | 64 | 0.0 | 0.0 | 0.00 | 0.47 | 0.03 | 99 | 1008.3 |
| 20260903152317 | 54 | 64 | 0.0 | 0.0 | 0.00 | 0.47 | 0.03 | 99 | 1008.4 |
| 20260903151317 | 54 | 64 | 0.0 | 0.0 | 0.00 | 0.47 | 0.03 | 99 | 1008.3 |
| 20260903150337 | 54 | 64 | 0.0 | 0.0 | 0.00 | 0.47 | 0.03 | 99 | 1008.3 |
| 20260903145314 | 53 | 64 | 0.0 | 0.0 | 0.00 | 0.48 | 0.03 | 99 | 1008.3 |
| 20260903144334 | 53 | 64 | 0.0 | 0.0 | 0.00 | 0.48 | 0.03 | 99 | 1008.3 |
| 20260903143314 | 53 | 64 | 0.0 | 0.0 | 0.00 | 0.48 | 0.03 | 99 | 1008.3 |
| 20260903142313 | 53 | 64 | 0.0 | 0.0 | 0.00 | 0.48 | 0.03 | 99 | 1008.2 |
| 20260903141314 | 53 | 64 | 0.0 | 0.0 | 0.00 | 0.48 | 0.03 | 99 | 1008.2 |
| 20260903140314 | 53 | 64 | 0.0 | 2.0 | 0.00 | 0.48 | 0.03 | 99 | 1008.2 |
| 20260903135317 | 53 | 27 | 0.0 | 0.0 | 0.00 | 0.48 | 0.03 | 99 | 1008.3 |
| 20260903134317 | 53 | 27 | 0.0 | 0.0 | 0.00 | 0.48 | 0.03 | 99 | 1008.3 |
| 20260903133317 | 53 | 27 | 0.0 | 0.0 | 0.00 | 0.48 | 0.03 | 99 | 1008.3 |
| 20260903132316 | 53 | 27 | 0.0 | 0.0 | 0.02 | 0.48 | 0.03 | 99 | 1008.3 |
| 20260903131316 | 54 | 27 | 0.0 | 0.0 | 0.02 | 0.48 | 0.03 | 99 | 1008.3 |
| 20260903130315 | 54 | 27 | 0.0 | 0.0 | 0.02 | 0.48 | 0.03 | 99 | 1008.3 |
| 20260903125312 | 54 | 27 | 0.0 | 0.0 | 0.02 | 0.48 | 0.03 | 99 | 1008.3 |
| 20260903124312 | 54 | 27 | 0.0 | 0.0 | 0.02 | 0.48 | 0.03 | 99 | 1008.6 |
| 20260903123312 | 54 | 27 | 0.0 | 0.0 | 0.02 | 0.48 | 0.03 | 99 | 1008.6 |
| 20260903122312 | 53 | 27 | 0.0 | 0.0 | 0.00 | 0.46 | 0.01 | 99 | 1008.6 |
| 20260903121331 | 53 | 27 | 0.0 | 0.0 | 0.00 | 0.46 | 0.01 | 99 | 1008.5 |
| 20260903120329 | 54 | 27 | 0.0 | 0.0 | 0.00 | 0.46 | 0.01 | 99 | 1008.5 |
| 20260903115329 | 54 | 27 | 0.0 | 0.0 | 0.00 | 0.46 | 0.01 | 99 | 1008.5 |
| 20260903114327 | 54 | 27 | 0.0 | 0.0 | 0.00 | 0.46 | 0.01 | 99 | 1008.3 |
| 20260903113311 | 53 | 27 | 0.0 | 0.0 | 0.00 | 0.46 | 0.01 | 99 | 1008.3 |
| 20260903112311 | 53 | 27 | 0.0 | 0.0 | 0.00 | 0.46 | 0.01 | 99 | 1008.5 |
| 20260903111330 | 53 | 27 | 0.0 | 0.0 | 0.00 | 0.46 | 0.01 | 99 | 1008.5 |
| 20260903110351 | 53 | 27 | 0.0 | 0.0 | 0.00 | 0.46 | 0.01 | 99 | 1008.5 |
| 20260903105329 | 53 | 27 | 0.0 | 0.0 | 0.01 | 0.46 | 0.01 | 99 | 1008.4 |
| 20260903104329 | 53 | 27 | 0.0 | 0.0 | 0.01 | 0.46 | 0.01 | 99 | 1008.6 |
| 20260903103327 | 53 | 27 | 0.0 | 0.0 | 0.01 | 0.46 | 0.01 | 99 | 1008.6 |
| 20260903102347 | 53 | 27 | 0.0 | 0.0 | 0.01 | 0.46 | 0.01 | 99 | 1008.8 |
| 20260903101325 | 53 | 27 | 0.0 | 0.0 | 0.01 | 0.46 | 0.01 | 99 | 1008.8 |
| 20260903100326 | 53 | 27 | 0.0 | 0.0 | 0.01 | 0.46 | 0.01 | 99 | 1008.8 |
| 20260903095326 | 54 | 27 | 0.0 | 0.0 | 0.00 | 0.45 | 0.00 | 99 | 1008.8 |
| 20260903094325 | 53 | 27 | 0.0 | 0.0 | 0.00 | 0.45 | 0.00 | 99 | 1008.9 |
| 20260903093325 | 53 | 27 | 0.0 | 0.0 | 0.00 | 0.45 | 0.00 | 99 | 1008.9 |
| 20260903092344 | 53 | 27 | 0.0 | 0.0 | 0.00 | 0.45 | 0.00 | 99 | 1008.9 |
| 20260903091322 | 53 | 27 | 0.0 | 0.0 | 0.00 | 0.45 | 0.00 | 99 | 1008.9 |
| 20260903090342 | 54 | 27 | 0.0 | 0.0 | 0.00 | 0.45 | 0.00 | 99 | 1008.9 |
| 20260903085320 | 54 | 27 | 0.0 | 0.0 | 0.00 | 0.45 | 0.00 | 99 | 1008.9 |
| 20260903084320 | 54 | 27 | 0.0 | 0.0 | 0.00 | 0.45 | 0.00 | 99 | 1009.1 |
| 20260903083321 | 54 | 27 | 0.0 | 0.0 | 0.00 | 0.45 | 0.00 | 99 | 1009.1 |
| 20260903082324 | 54 | 27 | 0.0 | 0.0 | 0.00 | 0.45 | 0.00 | 99 | 1009.0 |
| 20260903081325 | 54 | 27 | 0.0 | 0.0 | 0.00 | 0.45 | 0.00 | 99 | 1009.0 |
| 20260903080324 | 54 | 27 | 0.0 | 0.0 | 0.00 | 0.45 | 0.00 | 99 | 1009.0 |
| 20260903075323 | 54 | 27 | 0.0 | 0.0 | 0.00 | 0.45 | 0.00 | 98 | 1009.0 |
| 20260903074321 | 54 | 27 | 0.0 | 0.0 | 0.00 | 0.45 | 0.00 | 98 | 1009.1 |
| 20260903073321 | 53 | 27 | 0.0 | 0.0 | 0.00 | 0.45 | 0.00 | 98 | 1009.1 |
| 20260903072320 | 53 | 27 | 0.0 | 0.0 | 0.00 | 0.45 | 0.00 | 98 | 1008.9 |
| 20260903071319 | 53 | 27 | 0.0 | 0.0 | 0.00 | 0.45 | 0.00 | 98 | 1009.0 |
| 20260903070319 | 53 | 27 | 0.0 | 0.0 | 0.00 | 0.45 | 0.00 | 98 | 1009.0 |
| 20260903065319 | 53 | 27 | 0.0 | 0.0 | 0.00 | 0.45 | 0.45 | 98 | 1008.9 |